This is the latest recevied weather packets stored in our database for station/object W4SKW. If no packets are shown the sender has not sent any weather packets the latest 10 day(s).
| Time | Temp. | Humidity | Pressure | Rain* | Wind** | Luminosity | Snow |
|---|---|---|---|---|---|---|---|
| 1777857342 | 10.56° C | 83% | 1019 hPa | 0 mm | - | 0 W/m² | - |
| 1777857038 | 11.11° C | 82% | 1018.8 hPa | 0 mm | - | 0 W/m² | - |
| 1777856734 | 11.11° C | 82% | 1018.6 hPa | 0 mm | - | 0 W/m² | - |
| 1777856430 | 11.11° C | 81% | 1018.7 hPa | 0 mm | - | 0 W/m² | - |
| 1777856126 | 11.11° C | 81% | 1018.7 hPa | 0 mm | - | 0 W/m² | - |
| 1777855824 | 11.67° C | 80% | 1018.6 hPa | 0 mm | - | 0 W/m² | - |
| 1777855521 | 12.22° C | 79% | 1018.5 hPa | 0 mm | - | 0 W/m² | - |
| 1777855213 | 12.22° C | 79% | 1018.5 hPa | 0 mm | - | 0 W/m² | - |
| 1777854909 | 12.78° C | 79% | 1018.4 hPa | 0 mm | - | 1 W/m² | - |
| 1777854606 | 13.33° C | 79% | 1018.2 hPa | 0 mm | - | 2 W/m² | - |
| 1777854303 | 13.89° C | 77% | 1018.3 hPa | 0 mm | - | 3 W/m² | - |
| 1777854000 | 14.44° C | 76% | 1018.3 hPa | 0 mm | - | 6 W/m² | - |
| 1777853698 | 15° C | 74% | 1018.3 hPa | 0 mm | - | 8 W/m² | - |
| 1777853394 | 15° C | 74% | 1018.4 hPa | 0 mm | - | 9 W/m² | - |
| 1777853091 | 15.56° C | 72% | 1018.3 hPa | 0 mm | - | 12 W/m² | - |
| 1777852788 | 16.11° C | 71% | 1018.2 hPa | 0 mm | - | 14 W/m² | - |
| 1777852486 | 16.67° C | 64% | 1018.4 hPa | 0 mm | - | 19 W/m² | - |
| 1777852183 | 16.67° C | 64% | 1018.4 hPa | 0 mm | - | 19 W/m² | - |
| 1777851881 | 16.67° C | 68% | 1018.5 hPa | 0 mm | - | 21 W/m² | - |
| 1777851579 | 17.22° C | 63% | 1018.4 hPa | 0 mm | - | 23 W/m² | - |
| 1777851275 | 17.22° C | 61% | 1018.3 hPa | 0 mm | - | 25 W/m² | - |
| 1777850971 | 17.78° C | 60% | 1018.4 hPa | 0 mm | - | 27 W/m² | - |
| 1777850668 | 18.89° C | 56% | 1018.3 hPa | 0 mm | - | 36 W/m² | - |
| 1777850367 | 18.89° C | 56% | 1018.3 hPa | 0 mm | - | 36 W/m² | - |
| 1777850064 | 18.89° C | 51% | 1018.4 hPa | 0 mm | - | 40 W/m² | - |
* Rain latest hour (hover to see other rain measurements)
** Current wind speed in m/s (hover to see current wind gust speed)